Regional Weather Roundup
Issued by NWS Charleston, WV

Home | Current Version | Previous Version | Graphics & Text | Print | Product List | Glossary On
Versions: 1 2 3 4 5 6 7 8 9 10 11 12 13 14 15 16 17 18 19 20 21 22 23 24 25 26 27
000
ASUS41 KRLX 160810
RWRRLX
West Virginia Regional Weather Roundup
National Weather Service Charleston WV
400 AM EDT WED APR 16 2014

Note: "fair" indicates few or no clouds below 12,000 feet with no
significant weather and/or obstructions to visibility.

WVZ003-160900-
Northern Panhandle of West Virginia

CITY           SKY/WX    TMP DP  RH WIND       PRES   REMARKS
WHEELING       MOCLDY    25  18  74 NW5       30.25R
$$

WVZ009-160900-
Northwest West Virginia

CITY           SKY/WX    TMP DP  RH WIND       PRES   REMARKS
PARKERSBURG    CLEAR     25  21  85 CALM      30.32R
$$

WVZ006-160900-
Western West Virginia

CITY           SKY/WX    TMP DP  RH WIND       PRES   REMARKS
HUNTINGTON     CLEAR     28  19  69 CALM      30.30R
$$

WVZ015-160900-
West Central West Virginia

CITY           SKY/WX    TMP DP  RH WIND       PRES   REMARKS
CHARLESTON     CLEAR     29  21  72 CALM      30.29R
$$

WVZ031-160900-
North Central West Virginia

CITY           SKY/WX    TMP DP  RH WIND       PRES   REMARKS
CLARKSBURG     CLEAR     27  15  61 CALM      30.25R
MORGANTOWN     MOCLDY    28  17  63 CALM      30.25R
$$

WVZ035-042-045-160900-
South Central West Virginia

CITY           SKY/WX    TMP DP  RH WIND       PRES   REMARKS
BECKLEY        MOCLDY    24  14  65 N10       30.18R
BLUEFIELD      PTCLDY    26  13  57 NW6       30.16R
LEWISBURG      CLOUDY    25  13  60 NW5       30.17R
$$

WVZ047-160900-
Northern Mountains of West Virginia

CITY           SKY/WX    TMP DP  RH WIND       PRES   REMARKS
ELKINS         MOCLDY    24  16  71 NW5       30.21R
$$

WVZ052-160900-
Eastern Panhandle of West Virginia

CITY           SKY/WX    TMP DP  RH WIND       PRES   REMARKS
MARTINSBURG    CLOUDY    32  15  49 N12G25    30.21R
PETERSBURG     CLOUDY    35  20  55 NW7       30.24R
$$



USA.gov is the U.S. government's official web portal to all federal, state and local government web resources and services.